{"data":{"norad_id":66126,"intl_designator":"2025-237N","name":"STARLINK-35658","alt_names":[],"object_type":"PAYLOAD","status":"ACTIVE","operator":null,"country":"US","launch_date":"2025-10-22","launch_site_code":"AFWTR","launch_vehicle":null,"mission":null,"orbit_class":"UNKNOWN","rcs_meters":null,"size_class":null,"mass_kg":null,"dimensions":null,"purposes":["comms"],"wikipedia_slug":null,"has_3d_model":false,"image_url":null,"decayed_at":null,"tle_current":{"epoch":"2026-05-25T02:30:46.494720Z","epoch_age_seconds":66819,"freshness":"FRESH","line1":"1 66126U 25237N   26145.10470480  .00014986  00000+0  51695-3 0  9998","line2":"2 66126  53.1608  44.4231 0001148  55.9940 304.1169 15.30207086 34306","mean_motion":15.30207086,"eccentricity":0.0001148,"inclination_deg":53.1608,"raan_deg":44.4231,"arg_perigee_deg":55.994,"mean_anomaly_deg":304.1169,"bstar":0.00051695,"rev_number":3430,"period_min":94.104909928511,"perigee_km":474.40714959353,"apogee_km":475.98067437092,"semimajor_km":6853.3309119822,"source":"CELESTRAK","updated_at":"2026-05-25T13:38:21.064305Z"}}}